Time,TemperatureF,DewpointF,PressureIn,WindDirection,WindDirectionDegrees,WindSpeedMPH,WindSpeedGustMPH,Humidity,HourlyPrecipIn,Conditions,Clouds,dailyrainin,SoftwareType,DateUTC
2013-09-09 00:04:00,75.2,70.0,29.94,SW,230,1.0,1.0,84,0.00,,,0.00,Wunderground v.1.15,2013-09-09 04:04:00,
2013-09-09 00:10:00,75.1,70.3,29.94,SW,230,1.0,1.0,85,0.00,,,0.00,Wunderground v.1.15,2013-09-09 04:10:00,
2013-09-09 00:14:00,75.0,70.2,29.94,SW,230,1.0,1.0,85,0.00,,,0.00,Wunderground v.1.15,2013-09-09 04:14:00,
2013-09-09 00:24:00,74.7,69.9,29.94,SW,230,1.0,1.0,85,0.00,,,0.00,Wunderground v.1.15,2013-09-09 04:24:00,
2013-09-09 00:34:00,74.6,70.1,29.94,SW,230,0.0,0.0,86,0.00,,,0.00,Wunderground v.1.15,2013-09-09 04:34:00,
2013-09-09 00:39:00,74.6,70.1,29.95,SW,230,0.0,0.0,86,0.00,,,0.00,Wunderground v.1.15,2013-09-09 04:39:00,
2013-09-09 00:44:00,74.5,70.0,29.95,SW,230,0.0,0.0,86,0.00,,,0.00,Wunderground v.1.15,2013-09-09 04:44:00,
2013-09-09 00:49:00,74.5,70.0,29.94,SW,230,0.0,0.0,86,0.00,,,0.00,Wunderground v.1.15,2013-09-09 04:49:00,
2013-09-09 00:54:00,74.6,69.8,29.94,SW,230,0.0,0.0,85,0.00,,,0.00,Wunderground v.1.15,2013-09-09 04:54:00,
2013-09-09 01:09:00,74.5,70.0,29.94,West,261,0.0,4.0,86,0.00,,,0.00,Wunderground v.1.15,2013-09-09 05:09:00,
2013-09-09 01:19:00,74.3,69.8,29.95,West,259,0.0,0.0,86,0.00,,,0.00,Wunderground v.1.15,2013-09-09 05:19:00,
2013-09-09 01:29:00,74.2,69.7,29.95,West,259,0.0,0.0,86,0.00,,,0.00,Wunderground v.1.15,2013-09-09 05:29:00,
2013-09-09 01:39:00,74.2,69.7,29.95,West,259,1.0,1.0,86,0.00,,,0.00,Wunderground v.1.15,2013-09-09 05:39:00,
2013-09-09 01:50:00,73.9,69.8,29.95,West,259,0.0,0.0,87,0.00,,,0.00,Wunderground v.1.15,2013-09-09 05:50:00,
2013-09-09 02:04:00,73.6,69.5,29.95,West,259,0.0,1.0,87,0.00,,,0.00,Wunderground v.1.15,2013-09-09 06:04:00,
2013-09-09 02:14:00,73.7,69.6,29.95,West,259,2.0,2.0,87,0.00,,,0.00,Wunderground v.1.15,2013-09-09 06:14:00,
2013-09-09 02:24:00,73.6,69.5,29.95,West,259,1.0,2.0,87,0.00,,,0.00,Wunderground v.1.15,2013-09-09 06:24:00,
2013-09-09 02:34:00,73.4,69.3,29.95,West,259,0.0,0.0,87,0.00,,,0.00,Wunderground v.1.15,2013-09-09 06:34:00,
2013-09-09 02:44:00,73.3,69.2,29.95,West,259,0.0,1.0,87,0.00,,,0.00,Wunderground v.1.15,2013-09-09 06:44:00,
2013-09-09 02:59:00,73.1,69.3,29.95,West,259,0.0,0.0,88,0.00,,,0.00,Wunderground v.1.15,2013-09-09 06:59:00,
2013-09-09 03:09:00,73.0,69.2,29.95,West,259,0.0,0.0,88,0.00,,,0.00,Wunderground v.1.15,2013-09-09 07:09:00,
2013-09-09 03:19:00,72.8,69.0,29.95,West,259,0.0,0.0,88,0.00,,,0.00,Wunderground v.1.15,2013-09-09 07:19:00,
2013-09-09 03:29:00,72.7,69.3,29.96,West,259,0.0,0.0,89,0.00,,,0.00,Wunderground v.1.15,2013-09-09 07:29:00,
2013-09-09 03:39:00,72.6,69.2,29.95,West,259,0.0,0.0,89,0.00,,,0.00,Wunderground v.1.15,2013-09-09 07:39:00,
2013-09-09 03:54:00,71.8,68.7,29.95,West,259,0.0,0.0,90,0.00,,,0.00,Wunderground v.1.15,2013-09-09 07:54:00,
2013-09-09 04:04:00,72.0,69.2,29.95,West,259,0.0,0.0,91,0.00,,,0.00,Wunderground v.1.15,2013-09-09 08:04:00,
2013-09-09 04:14:00,72.1,69.0,29.96,West,259,1.0,1.0,90,0.00,,,0.00,Wunderground v.1.15,2013-09-09 08:14:00,
2013-09-09 04:24:00,72.2,69.1,29.96,West,259,2.0,2.0,90,0.00,,,0.00,Wunderground v.1.15,2013-09-09 08:24:00,
2013-09-09 04:34:00,72.1,69.0,29.96,West,259,1.0,1.0,90,0.00,,,0.00,Wunderground v.1.15,2013-09-09 08:34:00,
2013-09-09 04:49:00,71.6,68.5,29.97,West,259,0.0,0.0,90,0.00,,,0.00,Wunderground v.1.15,2013-09-09 08:49:00,
2013-09-09 04:59:00,71.0,68.2,29.97,West,259,0.0,0.0,91,0.00,,,0.00,Wunderground v.1.15,2013-09-09 08:59:00,
2013-09-09 05:09:00,70.6,68.2,29.97,West,259,0.0,0.0,92,0.00,,,0.00,Wunderground v.1.15,2013-09-09 09:09:00,
2013-09-09 05:19:00,70.3,68.2,29.97,West,259,0.0,0.0,93,0.00,,,0.00,Wunderground v.1.15,2013-09-09 09:19:00,
2013-09-09 05:29:00,70.1,68.0,29.97,West,259,0.0,0.0,93,0.00,,,0.00,Wunderground v.1.15,2013-09-09 09:29:00,
2013-09-09 05:39:00,70.4,68.6,29.98,West,259,0.0,0.0,94,0.00,,,0.00,Wunderground v.1.15,2013-09-09 09:39:00,
2013-09-09 05:50:00,70.7,68.9,29.98,West,259,0.0,0.0,94,0.00,,,0.00,Wunderground v.1.15,2013-09-09 09:50:00,
2013-09-09 06:04:00,70.5,68.4,29.98,West,259,0.0,0.0,93,0.00,,,0.00,Wunderground v.1.15,2013-09-09 10:04:00,
2013-09-09 06:14:00,70.4,68.3,29.98,West,259,0.0,0.0,93,0.00,,,0.00,Wunderground v.1.15,2013-09-09 10:14:00,
2013-09-09 06:24:00,70.2,68.4,29.98,West,259,0.0,0.0,94,0.00,,,0.00,Wunderground v.1.15,2013-09-09 10:24:00,
2013-09-09 06:34:00,69.9,68.1,29.99,West,259,0.0,0.0,94,0.00,,,0.00,Wunderground v.1.15,2013-09-09 10:34:00,
2013-09-09 06:44:00,69.5,68.0,29.99,West,259,0.0,0.0,95,0.00,,,0.00,Wunderground v.1.15,2013-09-09 10:44:00,
2013-09-09 06:54:00,69.7,68.2,29.99,West,259,0.0,0.0,95,0.00,,,0.00,Wunderground v.1.15,2013-09-09 10:54:00,
2013-09-09 07:05:00,69.8,68.3,30.00,West,259,0.0,0.0,95,0.00,,,0.00,Wunderground v.1.15,2013-09-09 11:05:00,
2013-09-09 07:19:00,69.4,67.9,30.00,West,259,0.0,0.0,95,0.00,,,0.00,Wunderground v.1.15,2013-09-09 11:19:00,
2013-09-09 07:29:00,69.5,68.0,30.00,West,259,0.0,0.0,95,0.00,,,0.00,Wunderground v.1.15,2013-09-09 11:29:00,
2013-09-09 07:39:00,69.9,68.4,30.00,West,259,0.0,0.0,95,0.00,,,0.00,Wunderground v.1.15,2013-09-09 11:39:00,
2013-09-09 07:49:00,70.5,69.0,30.01,West,259,0.0,0.0,95,0.00,,,0.00,Wunderground v.1.15,2013-09-09 11:49:00,
2013-09-09 07:59:00,71.2,69.4,30.01,West,259,0.0,0.0,94,0.00,,,0.00,Wunderground v.1.15,2013-09-09 11:59:00,
2013-09-09 08:14:00,72.5,70.0,30.01,West,259,0.0,0.0,92,0.00,,,0.00,Wunderground v.1.15,2013-09-09 12:14:00,
2013-09-09 08:24:00,73.6,70.5,30.02,West,259,0.0,0.0,90,0.00,,,0.00,Wunderground v.1.15,2013-09-09 12:24:00,
2013-09-09 08:34:00,74.6,70.8,30.02,West,259,0.0,0.0,88,0.00,,,0.00,Wunderground v.1.15,2013-09-09 12:34:00,
2013-09-09 08:44:00,75.5,71.0,30.02,West,259,0.0,0.0,86,0.00,,,0.00,Wunderground v.1.15,2013-09-09 12:44:00,
2013-09-09 08:54:00,76.9,71.3,30.02,West,259,0.0,0.0,83,0.00,,,0.00,Wunderground v.1.15,2013-09-09 12:54:00,
2013-09-09 09:04:00,77.1,71.5,30.02,West,259,0.0,0.0,83,0.00,,,0.00,Wunderground v.1.15,2013-09-09 13:04:00,
2013-09-09 09:14:00,78.0,72.1,30.03,West,259,0.0,0.0,82,0.00,,,0.00,Wunderground v.1.15,2013-09-09 13:14:00,
2013-09-09 09:29:00,78.6,72.3,30.03,West,259,0.0,0.0,81,0.00,,,0.00,Wunderground v.1.15,2013-09-09 13:29:00,
2013-09-09 09:39:00,79.3,72.6,30.03,West,267,0.0,0.0,80,0.00,,,0.00,Wunderground v.1.15,2013-09-09 13:39:00,
2013-09-09 09:49:00,79.9,72.4,30.03,SSE,154,1.0,2.0,78,0.00,,,0.00,Wunderground v.1.15,2013-09-09 13:49:00,
2013-09-09 09:59:00,80.2,72.3,30.04,ENE,69,1.0,2.0,77,0.00,,,0.00,Wunderground v.1.15,2013-09-09 13:59:00,
2013-09-09 10:09:00,80.9,72.6,30.04,SE,128,1.0,2.0,76,0.00,,,0.00,Wunderground v.1.15,2013-09-09 14:09:00,
2013-09-09 10:20:00,81.1,72.8,30.04,SE,144,1.0,1.0,76,0.00,,,0.00,Wunderground v.1.15,2013-09-09 14:20:00,
2013-09-09 10:34:00,82.2,73.1,30.04,ESE,115,2.0,2.0,74,0.00,,,0.00,Wunderground v.1.15,2013-09-09 14:34:00,
2013-09-09 10:44:00,82.3,73.2,30.05,ESE,111,1.0,2.0,74,0.00,,,0.00,Wunderground v.1.15,2013-09-09 14:44:00,
2013-09-09 10:54:00,82.6,73.1,30.05,ESE,112,4.0,4.0,73,0.00,,,0.00,Wunderground v.1.15,2013-09-09 14:54:00,
2013-09-09 11:09:00,83.8,73.0,30.05,SE,126,3.0,9.0,70,0.00,,,0.00,Wunderground v.1.15,2013-09-09 15:09:00,
2013-09-09 11:19:00,84.5,72.8,30.05,East,92,4.0,6.0,68,0.00,,,0.00,Wunderground v.1.15,2013-09-09 15:19:00,
2013-09-09 11:29:00,85.0,71.9,30.05,SSE,150,4.0,4.0,65,0.00,,,0.00,Wunderground v.1.15,2013-09-09 15:29:00,
2013-09-09 11:39:00,84.5,71.9,30.05,East,93,3.0,3.0,66,0.00,,,0.00,Wunderground v.1.15,2013-09-09 15:39:00,
2013-09-09 11:49:00,85.3,70.8,30.06,East,93,4.0,4.0,62,0.00,,,0.00,Wunderground v.1.15,2013-09-09 15:49:00,
2013-09-09 12:00:00,85.7,70.7,30.05,SE,144,5.0,5.0,61,0.00,,,0.00,Wunderground v.1.15,2013-09-09 16:00:00,
2013-09-09 12:14:00,86.0,71.0,30.05,East,83,5.0,6.0,61,0.00,,,0.00,Wunderground v.1.15,2013-09-09 16:14:00,
2013-09-09 12:24:00,86.0,70.5,30.05,SSW,203,4.0,4.0,60,0.00,,,0.00,Wunderground v.1.15,2013-09-09 16:24:00,
2013-09-09 12:34:00,86.5,70.5,30.05,East,93,4.0,4.0,59,0.00,,,0.00,Wunderground v.1.15,2013-09-09 16:34:00,
2013-09-09 12:44:00,86.6,70.6,30.05,South,171,4.0,4.0,59,0.00,,,0.00,Wunderground v.1.15,2013-09-09 16:44:00,
2013-09-09 12:55:00,86.4,69.9,30.05,East,96,4.0,4.0,58,0.00,,,0.00,Wunderground v.1.15,2013-09-09 16:55:00,
2013-09-09 13:09:00,86.0,70.0,30.06,SE,134,4.0,5.0,59,0.00,,,0.00,Wunderground v.1.15,2013-09-09 17:09:00,
2013-09-09 13:19:00,85.5,70.0,30.05,ESE,116,4.0,7.0,60,0.00,,,0.00,Wunderground v.1.15,2013-09-09 17:19:00,
2013-09-09 13:29:00,86.1,69.6,30.05,South,185,3.0,3.0,58,0.00,,,0.00,Wunderground v.1.15,2013-09-09 17:29:00,
2013-09-09 13:39:00,87.1,70.5,30.05,SE,141,5.0,7.0,58,0.00,,,0.00,Wunderground v.1.15,2013-09-09 17:39:00,
2013-09-09 13:49:00,86.5,70.5,30.05,SSE,156,5.0,6.0,59,0.00,,,0.00,Wunderground v.1.15,2013-09-09 17:49:00,
2013-09-09 14:00:00,87.0,70.9,30.05,SE,126,5.0,5.0,59,0.00,,,0.00,Wunderground v.1.15,2013-09-09 18:00:00,
2013-09-09 14:14:00,86.1,71.1,30.05,ESE,119,6.0,6.0,61,0.00,,,0.00,Wunderground v.1.15,2013-09-09 18:14:00,
2013-09-09 14:24:00,86.6,70.6,30.05,South,174,4.0,5.0,59,0.00,,,0.00,Wunderground v.1.15,2013-09-09 18:24:00,
2013-09-09 14:34:00,86.3,71.3,30.05,SSE,167,6.0,6.0,61,0.00,,,0.00,Wunderground v.1.15,2013-09-09 18:34:00,
2013-09-09 14:44:00,86.4,71.8,30.05,SE,130,5.0,7.0,62,0.00,,,0.00,Wunderground v.1.15,2013-09-09 18:44:00,
2013-09-09 14:55:00,85.9,72.8,30.05,SSE,166,5.0,5.0,65,0.00,,,0.00,Wunderground v.1.15,2013-09-09 18:55:00,
2013-09-09 15:09:00,86.1,72.0,30.05,SE,145,5.0,5.0,63,0.00,,,0.00,Wunderground v.1.15,2013-09-09 19:09:00,
2013-09-09 15:19:00,85.8,72.7,30.05,SE,138,6.0,8.0,65,0.00,,,0.00,Wunderground v.1.15,2013-09-09 19:19:00,
2013-09-09 15:29:00,85.2,72.6,30.05,South,169,7.0,7.0,66,0.00,,,0.00,Wunderground v.1.15,2013-09-09 19:29:00,
2013-09-09 15:39:00,85.7,72.1,30.04,SSE,151,6.0,11.0,64,0.00,,,0.00,Wunderground v.1.15,2013-09-09 19:39:00,
2013-09-09 15:50:00,85.5,72.4,30.04,SE,128,5.0,5.0,65,0.00,,,0.00,Wunderground v.1.15,2013-09-09 19:50:00,
2013-09-09 16:04:00,85.4,71.4,30.05,SSE,161,7.0,7.0,63,0.00,,,0.00,Wunderground v.1.15,2013-09-09 20:04:00,
2013-09-09 16:14:00,85.4,72.3,30.05,SSE,150,6.0,11.0,65,0.00,,,0.00,Wunderground v.1.15,2013-09-09 20:14:00,
2013-09-09 16:25:00,84.6,70.6,30.05,SSE,166,7.0,8.0,63,0.00,,,0.00,Wunderground v.1.15,2013-09-09 20:25:00,
2013-09-09 16:39:00,84.8,71.3,30.05,SE,136,6.0,7.0,64,0.00,,,0.00,Wunderground v.1.15,2013-09-09 20:39:00,
2013-09-09 16:49:00,84.8,70.3,30.05,SSE,161,6.0,6.0,62,0.00,,,0.00,Wunderground v.1.15,2013-09-09 20:49:00,
2013-09-09 16:59:00,84.5,70.5,30.05,ESE,122,6.0,7.0,63,0.00,,,0.00,Wunderground v.1.15,2013-09-09 20:59:00,
2013-09-09 17:09:00,84.3,70.8,30.05,ESE,115,5.0,5.0,64,0.00,,,0.00,Wunderground v.1.15,2013-09-09 21:09:00,
2013-09-09 17:19:00,84.1,70.1,30.05,SE,134,6.0,6.0,63,0.00,,,0.00,Wunderground v.1.15,2013-09-09 21:19:00,
2013-09-09 17:34:00,84.5,70.5,30.05,SE,127,4.0,4.0,63,0.00,,,0.00,Wunderground v.1.15,2013-09-09 21:34:00,
2013-09-09 17:44:00,83.7,69.8,30.05,SE,138,6.0,7.0,63,0.00,,,0.00,Wunderground v.1.15,2013-09-09 21:44:00,
2013-09-09 17:54:00,83.9,70.0,30.05,ESE,106,5.0,5.0,63,0.00,,,0.00,Wunderground v.1.15,2013-09-09 21:54:00,
2013-09-09 18:04:00,83.4,70.4,30.05,SE,134,5.0,7.0,65,0.00,,,0.00,Wunderground v.1.15,2013-09-09 22:04:00,
2013-09-09 18:14:00,83.6,70.1,30.05,SE,143,5.0,6.0,64,0.00,,,0.00,Wunderground v.1.15,2013-09-09 22:14:00,
2013-09-09 18:25:00,83.2,70.7,30.05,SE,144,5.0,5.0,66,0.00,,,0.00,Wunderground v.1.15,2013-09-09 22:25:00,
2013-09-09 18:39:00,82.4,71.2,30.05,ESE,115,4.0,4.0,69,0.00,,,0.00,Wunderground v.1.15,2013-09-09 22:39:00,
2013-09-09 18:49:00,82.0,71.7,30.05,ESE,111,4.0,4.0,71,0.00,,,0.00,Wunderground v.1.15,2013-09-09 22:49:00,
2013-09-09 18:59:00,81.4,71.5,30.05,ESE,103,4.0,7.0,72,0.00,,,0.00,Wunderground v.1.15,2013-09-09 22:59:00,
2013-09-09 19:09:00,80.9,71.4,30.05,ESE,105,3.0,3.0,73,0.00,,,0.00,Wunderground v.1.15,2013-09-09 23:09:00,
2013-09-09 19:20:00,80.5,71.4,30.05,ESE,111,2.0,2.0,74,0.00,,,0.00,Wunderground v.1.15,2013-09-09 23:20:00,
2013-09-09 19:34:00,79.9,71.3,30.06,East,92,2.0,2.0,75,0.00,,,0.00,Wunderground v.1.15,2013-09-09 23:34:00,
2013-09-09 19:44:00,79.5,71.3,30.06,ESE,119,1.0,1.0,76,0.00,,,0.00,Wunderground v.1.15,2013-09-09 23:44:00,
2013-09-09 19:54:00,79.1,71.3,30.06,ESE,123,0.0,0.0,77,0.00,,,0.00,Wunderground v.1.15,2013-09-09 23:54:00,
2013-09-09 20:04:00,78.8,71.4,30.07,ESE,123,1.0,1.0,78,0.00,,,0.00,Wunderground v.1.15,2013-09-10 00:04:00,
2013-09-09 20:14:00,78.2,71.2,30.07,ESE,123,0.0,0.0,79,0.00,,,0.00,Wunderground v.1.15,2013-09-10 00:14:00,
2013-09-09 20:29:00,77.7,71.4,30.07,ESE,122,0.0,0.0,81,0.00,,,0.00,Wunderground v.1.15,2013-09-10 00:29:00,
2013-09-09 20:39:00,77.3,71.4,30.07,ESE,123,0.0,1.0,82,0.00,,,0.00,Wunderground v.1.15,2013-09-10 00:39:00,
2013-09-09 20:49:00,77.2,71.3,30.07,ESE,123,1.0,1.0,82,0.00,,,0.00,Wunderground v.1.15,2013-09-10 00:49:00,
2013-09-09 20:59:00,76.8,71.6,30.07,ESE,123,0.0,0.0,84,0.00,,,0.00,Wunderground v.1.15,2013-09-10 00:59:00,
2013-09-09 21:14:00,76.4,71.6,30.08,ESE,123,0.0,0.0,85,0.00,,,0.00,Wunderground v.1.15,2013-09-10 01:14:00,
2013-09-09 21:24:00,76.2,71.7,30.08,ESE,122,0.0,0.0,86,0.00,,,0.00,Wunderground v.1.15,2013-09-10 01:24:00,
2013-09-09 21:34:00,76.0,71.5,30.08,ESE,122,0.0,0.0,86,0.00,,,0.00,Wunderground v.1.15,2013-09-10 01:34:00,
2013-09-09 21:44:00,75.9,71.4,30.08,ESE,123,0.0,0.0,86,0.00,,,0.00,Wunderground v.1.15,2013-09-10 01:44:00,
2013-09-09 21:54:00,75.8,71.0,30.09,ESE,123,0.0,0.0,85,0.00,,,0.00,Wunderground v.1.15,2013-09-10 01:54:00,
2013-09-09 22:05:00,75.6,71.1,30.09,ESE,122,0.0,0.0,86,0.00,,,0.00,Wunderground v.1.15,2013-09-10 02:05:00,
2013-09-09 22:19:00,75.7,70.9,30.09,ESE,123,0.0,0.0,85,0.00,,,0.00,Wunderground v.1.15,2013-09-10 02:19:00,
2013-09-09 22:29:00,75.4,70.6,30.09,ESE,123,0.0,0.0,85,0.00,,,0.00,Wunderground v.1.15,2013-09-10 02:29:00,
2013-09-09 22:39:00,75.3,70.8,30.08,ESE,122,0.0,0.0,86,0.00,,,0.00,Wunderground v.1.15,2013-09-10 02:39:00,
2013-09-09 22:49:00,75.2,70.7,30.09,ESE,122,0.0,0.0,86,0.00,,,0.00,Wunderground v.1.15,2013-09-10 02:49:00,
2013-09-09 22:59:00,75.1,70.6,30.10,ESE,123,0.0,0.0,86,0.00,,,0.00,Wunderground v.1.15,2013-09-10 02:59:00,
2013-09-09 23:14:00,74.5,70.4,30.10,ESE,123,0.0,0.0,87,0.00,,,0.00,Wunderground v.1.15,2013-09-10 03:14:00,
2013-09-09 23:24:00,74.2,70.4,30.10,ESE,123,0.0,0.0,88,0.00,,,0.00,Wunderground v.1.15,2013-09-10 03:24:00,
2013-09-09 23:34:00,74.0,70.6,30.10,ESE,122,0.0,0.0,89,0.00,,,0.00,Wunderground v.1.15,2013-09-10 03:34:00,
2013-09-09 23:44:00,73.8,70.4,30.10,ESE,122,0.0,0.0,89,0.00,,,0.00,Wunderground v.1.15,2013-09-10 03:44:00,
2013-09-09 23:54:00,73.6,70.5,30.10,ESE,123,0.0,0.0,90,0.00,,,0.00,Wunderground v.1.15,2013-09-10 03:54:00,